Location: Newark
(59.4564°N, 26.6917°E)
Time: 04:41:41
(UTC+00:00)

SR - Pass Details

Date: 22 November 2019
Orbit: 573 x 882 km, 66.7° (Epoch: 06 December)

Event Time Altitude Azimuth Distance (km) Brightness Sun altitude
Rises 16:29:52 0° 282° (WNW) 3,394 ? -21.1°
Reaches altitude 10° 16:32:26 10° 289° (WNW) 2,492 ? -21.4°
Maximum altitude 16:37:57 42° 360° (N) 1,244 ? -22.1°
Enters shadow 16:39:43 34° 39° (NE) 1,431 ? -22.4°
Drops below altitude 10° 16:43:35 10° 70° (ENE) 2,550 - -22.9°
Sets 16:46:15 0° 78° (ENE) 3,482 - -23.2°
